Location: Newark
(12.4436°N, 0.6167°W)
Time: 22:44:05
(UTC+00:00)

Transit 2A - Pass Details

Date: 10 December 2019
Orbit: 601 x 958 km, 66.7° (Epoch: 21 January)

Event Time Altitude Azimuth Distance (km) Brightness Sun altitude
Rises 04:55:37 0° 173° (S) 3,373 9.7 -18.3°
Reaches altitude 10° 04:58:44 10° 157° (SSE) 2,370 9.1 -17.6°
Maximum altitude 05:02:42 21° 110° (ESE) 1,660 8.8 -16.7°
Drops below altitude 10° 05:06:24 10° 62° (ENE) 2,194 8.9 -15.9°
Sets 05:09:08 0° 46° (NE) 3,050 9.5 -15.2°
